Location: Enborne
(51.3833°N, 1.3667°W)
Time: 15:31:32
(UTC+00:00)

NOSS 2-2 (C) - Pass Details

Date: 18 January 2021
Orbit: 463 x 1745 km, 63.3° (Epoch: 03 March)

Event Time Altitude Azimuth Distance (km) Brightness Sun altitude
Rises 19:22:33 0° 309° (NW) 2,769 7.6 -26.1°
Reaches altitude 10° 19:24:55 10° 325° (NW) 2,002 6.6 -26.4°
Enters shadow 19:27:19 21° 356° (N) 1,523 5.5 -26.8°
